STARLINK-36954, 68057

Orbit data source: Space-Track

STARLINK-36954, 68057 is a payload satellite owned by SpaceX/Seattle (US) in LEO that was launched on Mon, 02 Mar 2026 UTC via an FALCON 9 launch vehicle from the Air Force Eastern Test Range (AFETR). Payload-class satellites include a variety of spacecraft equipped with specific instruments for various scientific and technological missions. These include communications satellites like Starlink; space stations such as the ISS; scientific satellites like the Hubble; Earth observation satellites from companies like Planet Labs, Umbra, and HawkEye 360; GPS; miniature CubeSats for education and research; and military/defense satellites.

Loading next visibility...
Identifier
68057, 2026-041T
Orbit
LEO
Country
Flag of USUS
Related business
Manufacturer
SpaceX/Seattle
Mission
Operational Commercial Communications
Bus & Motor
STARLINK V2MO, Unknown motor
Mass
575 kg wet, ~530 kg dry
Launch date (UTC)
2026-03-02 (2 months ago)
Launch vehicle
FALCON 9
Launch site
Air Force Eastern Test Range (AFETR)
Object type
Payload
Rocket body
Debris
Shape & HBR
Box + 2 Pan, 17.7 m
Radar Cross Section
36.964 m²

Expand to show TLE details & history
Last TLE update: 6 hours ago

TLE from 6 hours ago
0 STARLINK-36954
1 68057U 26041T   26119.16668980  .00022474  00000-0  65328-3 0  9998
2 68057  53.1596 174.5112 0001410  74.4097 127.2383 15.35398571  5834
Epoch: 2026-04-29T04:00Z
TLE epoch observation values (Epoch: 2026-04-29T04:00:01.998Z)
Latitude
-17.35386°
Longitude
90.83478°
Altitude
465.046 km
Speed
7.634 km/s
True Right ascension
00h 31m 53s
True Declination
-17° 15' 07"
Sunlit
Object was in daylight at epoch
Visualization orbit readout
Latitude
Unknown
Longitude
Unknown
Altitude
Unknown
Speed
Unknown
Apparent Right ascension
Unknown
Apparent Declination
Unknown
Sunlit
N/A
Visualization observer readout
Local Sidereal Time
17:09:06
Azimuth
Unknown
Elevation
Unknown
Doppler factor
Unknown
Orbital elements
Apogee altitude
460.958 km
Perigee altitude
459.03 km
Semi-major axis
6,838.131 km
Eccentricity
0.00014
Inclination
53.1596°
RAAN
174.5112°
Arg. of periapsis
74.4097°
True anomaly
127.25116°
Mean anomaly
127.2383°
Eccentric anomaly
127.24473°
Mean motion
3.83828 °/min
Orbital period
93.79 mins
BSTAR
0.00065328
Loading maneuver chart data...
Computing Atmospheric mass density...
Loading historical data...
Loading historical data...
Loading historical data...
Loading historical data...
Loading historical data...
Loading historical data...
Loading historical data...

Documentation

Showing up to 5 results
|